Flag Weather past 2 weeks in Sunrise Manor, Nevada, U.S.A.

Now
49 °F

Clear.


Feels Like: 48 °F
Forecast: 56 / 82 °F
Wind: 3 mph from East

Location: Nellis Air Force Base

Current Time: Oct 30, 2014 at 7:40:28 AM

Latest Report: Oct 30, 2014 at 6:58 AM


Visibility: 10 mi

Pressure: 30.06 "Hg

Humidity: 30%

Dew point: 19 °F

Location of Sunrise ManorLocation

Historic Weather in Sunrise Manor — Graph

°F

Sunrise Manor temperature yesterday

Maximum temperature yesterday: 82 °F (at 3:58 PM)
Minimum temperature yesterday: 49 °F (at 5:58 AM)
Average temperature yesterday: 65 °F

Past Weeks' High & Low Weather Summary

 TemperatureHumidityPressure
High90 °F (Oct 15, 2:04 PM)45% (Oct 17, 6:58 AM)30.15 "Hg (Oct 17, 6:58 AM)
Low49 °F (Oct 29, 5:58 AM)8% (Oct 21, 3:58 PM)29.70 "Hg (Oct 21, 2:58 PM)
Average72 °F26%29.90 "Hg
* Reported Oct 15 6:58 AM — Oct 30 6:58 AM, Sunrise Manor, Weather by CustomWeather, © 2014

Note: Actual official high and low records may vary slightly from our data, if they occured in-between our weather recording intervals... More about our weather records

Advertising

Sunrise Manor weather history for previous 24 hours

 ConditionsComfort  
Time TempWeatherWind HumidityBarometerVisibility
6:58 AM
Oct 30
49 °FClear.3 mph30%30.06 "Hg10 mi
5:58 AM52 °FClear.1 mph27%30.04 "Hg10 mi
4:58 AM52 °FClear.1 mph27%30.03 "Hg10 mi
3:58 AM54 °FClear.No wind25%30.03 "Hg10 mi
2:58 AM56 °FClear.5 mph24%30.03 "Hg10 mi
1:58 AM54 °FClear.5 mph25%30.04 "Hg10 mi
12:58 AM57 °FClear.2 mph23%30.05 "Hg10 mi
11:58 PM
Oct 29
57 °FClear.2 mph22%30.04 "Hg10 mi
10:58 PM59 °FClear.2 mph21%30.05 "Hg10 mi
9:58 PM60 °FClear.3 mph20%30.04 "Hg10 mi
8:58 PM66 °FClear.No wind17%30.03 "Hg10 mi
7:58 PM68 °FClear.2 mph15%30.03 "Hg10 mi
6:58 PM71 °FClear.3 mph14%30.01 "Hg10 mi
5:58 PM79 °FSunny.2 mph11%29.99 "Hg10 mi
4:58 PM82 °FSunny.6 mph9%30.00 "Hg10 mi
3:58 PM82 °FSunny.8 mph9%30.01 "Hg10 mi
2:58 PM82 °FSunny.8 mph8%30.02 "Hg10 mi
1:58 PM80 °FSunny.6 mph9%30.04 "Hg10 mi
12:58 PM77 °FSunny.2 mph11%30.08 "Hg10 mi
11:58 AM75 °FSunny.1 mph12%30.12 "Hg10 mi
10:58 AM69 °FSunny.5 mph16%30.14 "Hg10 mi
9:58 AM64 °FSunny.No wind19%30.15 "Hg10 mi
8:58 AM58 °FSunny.5 mph23%30.15 "Hg10 mi
7:58 AM49 °FClear.2 mph30%30.14 "Hg10 mi
Weather by CustomWeather, © 2014

See weather overviewHow to use our weather pages